TimeCDT,TemperatureF,Dew PointF,Humidity,Sea Level PressureIn,VisibilityMPH,Wind Direction,Wind SpeedMPH,Gust SpeedMPH,PrecipitationIn,Events,Conditions,WindDirDegrees,DateUTC
12:15 AM,73.4,55.4,53,30.00,10.0,SSE,9.2,16.1,N/A,,Clear,160,2013-04-10 05:15:00
12:35 AM,73.4,55.4,53,30.00,10.0,South,8.1,-,N/A,,Clear,180,2013-04-10 05:35:00
12:55 AM,71.6,55.4,57,30.01,9.0,South,5.8,-,N/A,,Clear,170,2013-04-10 05:55:00
1:15 AM,71.6,55.4,57,30.01,10.0,South,8.1,-,N/A,,Clear,180,2013-04-10 06:15:00
1:35 AM,71.6,55.4,57,30.00,10.0,South,6.9,-,N/A,,Clear,180,2013-04-10 06:35:00
1:55 AM,71.6,53.6,53,30.00,9.0,South,8.1,-,N/A,,Clear,180,2013-04-10 06:55:00
2:15 AM,71.6,53.6,53,29.99,10.0,South,9.2,-,N/A,,Clear,170,2013-04-10 07:15:00
2:35 AM,69.8,53.6,56,29.99,10.0,South,8.1,-,N/A,,Clear,170,2013-04-10 07:35:00
2:55 AM,69.8,53.6,56,29.98,9.0,SSE,6.9,-,N/A,,Clear,160,2013-04-10 07:55:00
3:15 AM,69.8,53.6,56,29.98,10.0,South,5.8,-,N/A,,Clear,170,2013-04-10 08:15:00
3:35 AM,69.8,51.8,53,29.97,10.0,South,5.8,-,N/A,,Clear,170,2013-04-10 08:35:00
3:55 AM,68.0,51.8,56,29.98,10.0,South,3.5,-,N/A,,Clear,170,2013-04-10 08:55:00
4:15 AM,68.0,51.8,56,29.98,10.0,Calm,Calm,-,N/A,,Clear,0,2013-04-10 09:15:00
4:35 AM,66.2,50.0,56,29.98,10.0,SSE,4.6,-,N/A,,Clear,150,2013-04-10 09:35:00
4:55 AM,66.2,50.0,56,29.97,10.0,SE,5.8,-,N/A,,Clear,130,2013-04-10 09:55:00
5:15 AM,66.2,50.0,56,29.96,10.0,SE,4.6,-,N/A,,Clear,140,2013-04-10 10:15:00
5:35 AM,66.2,48.2,52,29.96,9.0,SSE,5.8,-,N/A,,Clear,160,2013-04-10 10:35:00
5:55 AM,66.2,48.2,52,29.97,10.0,SSE,3.5,-,N/A,,Clear,160,2013-04-10 10:55:00
6:15 AM,64.4,48.2,56,29.98,10.0,Calm,Calm,-,N/A,,Clear,0,2013-04-10 11:15:00
6:35 AM,64.4,46.4,52,29.99,9.0,Calm,Calm,-,N/A,,Unknown,0,2013-04-10 11:35:00
6:55 AM,62.6,46.4,55,30.00,8.0,Calm,Calm,-,N/A,,Clear,0,2013-04-10 11:55:00
7:15 AM,62.6,46.4,55,30.01,9.0,Calm,Calm,-,N/A,,Clear,0,2013-04-10 12:15:00
7:35 AM,64.4,48.2,56,30.01,8.0,Calm,Calm,-,N/A,,Clear,0,2013-04-10 12:35:00
7:55 AM,66.2,50.0,56,30.01,8.0,Calm,Calm,-,N/A,,Clear,0,2013-04-10 12:55:00
8:15 AM,66.2,51.8,60,30.01,9.0,SE,4.6,-,N/A,,Clear,130,2013-04-10 13:15:00
8:35 AM,69.8,51.8,53,30.00,9.0,ESE,8.1,-,N/A,,Clear,110,2013-04-10 13:35:00
8:55 AM,71.6,53.6,53,30.02,9.0,South,6.9,-,N/A,,Clear,180,2013-04-10 13:55:00
9:15 AM,73.4,55.4,53,30.02,9.0,South,9.2,-,N/A,,Clear,180,2013-04-10 14:15:00
9:35 AM,71.6,53.6,53,30.03,10.0,South,6.9,-,N/A,,Clear,180,2013-04-10 14:35:00
9:55 AM,71.6,55.4,57,30.03,9.0,South,6.9,-,N/A,,Clear,170,2013-04-10 14:55:00
10:15 AM,78.8,60.8,54,30.03,9.0,SSE,10.4,-,N/A,,Clear,160,2013-04-10 15:15:00
10:35 AM,78.8,62.6,57,30.02,8.0,South,10.4,16.1,N/A,,Partly Cloudy,170,2013-04-10 15:35:00
10:55 AM,80.6,62.6,54,30.02,9.0,South,8.1,-,N/A,,Clear,170,2013-04-10 15:55:00
11:15 AM,80.6,64.4,58,30.02,9.0,SSE,5.8,-,N/A,,Clear,160,2013-04-10 16:15:00
11:35 AM,82.4,64.4,54,30.02,10.0,SSE,6.9,-,N/A,,Clear,160,2013-04-10 16:35:00
11:55 AM,84.2,66.2,55,30.02,10.0,SSE,6.9,-,N/A,,Partly Cloudy,160,2013-04-10 16:55:00
12:15 PM,84.2,66.2,55,30.01,10.0,South,8.1,-,N/A,,Partly Cloudy,170,2013-04-10 17:15:00
12:35 PM,86.0,69.8,58,30.00,9.0,SSE,8.1,-,N/A,,Clear,150,2013-04-10 17:35:00
12:55 PM,86.0,69.8,58,30.00,9.0,SSE,8.1,-,N/A,,Partly Cloudy,150,2013-04-10 17:55:00
1:15 PM,84.2,66.2,55,29.99,10.0,South,6.9,-,N/A,,Clear,180,2013-04-10 18:15:00
1:35 PM,87.8,69.8,55,29.98,10.0,South,11.5,16.1,N/A,,Clear,180,2013-04-10 18:35:00
1:55 PM,89.6,71.6,55,29.96,9.0,South,10.4,17.3,N/A,,Clear,170,2013-04-10 18:55:00
2:15 PM,89.6,71.6,55,29.96,10.0,SSE,15.0,18.4,N/A,,Clear,150,2013-04-10 19:15:00
2:35 PM,89.6,71.6,55,29.95,9.0,South,13.8,-,N/A,,Clear,170,2013-04-10 19:35:00
2:55 PM,87.8,69.8,55,29.94,9.0,South,15.0,20.7,N/A,,Clear,180,2013-04-10 19:55:00
3:15 PM,89.6,71.6,55,29.93,8.0,South,11.5,19.6,N/A,,Clear,170,2013-04-10 20:15:00
3:35 PM,89.6,71.6,55,29.91,9.0,South,18.4,-,N/A,,Clear,180,2013-04-10 20:35:00
3:55 PM,89.6,71.6,55,29.90,10.0,SSE,10.4,17.3,N/A,,Clear,150,2013-04-10 20:55:00
4:15 PM,89.6,71.6,55,29.89,9.0,SSE,9.2,19.6,N/A,,Clear,160,2013-04-10 21:15:00
4:35 PM,87.8,71.6,58,29.89,9.0,South,9.2,17.3,N/A,,Clear,190,2013-04-10 21:35:00
4:55 PM,87.8,69.8,55,29.88,9.0,South,10.4,19.6,N/A,,Clear,180,2013-04-10 21:55:00
5:15 PM,87.8,69.8,55,29.87,10.0,SSE,12.7,16.1,N/A,,Clear,160,2013-04-10 22:15:00
5:35 PM,86.0,68.0,55,29.87,9.0,South,12.7,19.6,N/A,,Clear,180,2013-04-10 22:35:00
5:55 PM,84.2,66.2,55,29.85,10.0,SSE,10.4,16.1,N/A,,Clear,160,2013-04-10 22:55:00
6:15 PM,84.2,66.2,55,29.84,9.0,South,10.4,16.1,N/A,,Clear,170,2013-04-10 23:15:00
6:35 PM,82.4,64.4,54,29.83,9.0,South,10.4,19.6,N/A,,Partly Cloudy,170,2013-04-10 23:35:00
6:55 PM,80.6,64.4,58,29.82,10.0,South,8.1,-,N/A,,Scattered Clouds,170,2013-04-10 23:55:00
7:15 PM,80.6,62.6,54,29.82,9.0,SSE,6.9,-,N/A,,Clear,150,2013-04-11 00:15:00
7:35 PM,78.8,62.6,57,29.82,10.0,SSE,8.1,-,N/A,,Clear,160,2013-04-11 00:35:00
7:55 PM,78.8,60.8,54,29.81,10.0,SSE,9.2,-,N/A,,Partly Cloudy,150,2013-04-11 00:55:00
8:15 PM,78.8,60.8,54,29.82,10.0,SSE,9.2,-,N/A,,Scattered Clouds,160,2013-04-11 01:15:00
8:35 PM,78.8,62.6,57,29.83,10.0,South,8.1,-,N/A,,Scattered Clouds,170,2013-04-11 01:35:00
8:55 PM,78.8,60.8,54,29.82,10.0,South,9.2,-,N/A,,Partly Cloudy,170,2013-04-11 01:55:00
9:15 PM,77.0,60.8,57,29.82,10.0,SSE,8.1,-,N/A,,Clear,160,2013-04-11 02:15:00
9:35 PM,75.2,59.0,57,29.83,9.0,South,6.9,-,N/A,,Clear,170,2013-04-11 02:35:00
9:55 PM,75.2,59.0,57,29.82,10.0,South,11.5,-,N/A,,Clear,170,2013-04-11 02:55:00
10:15 PM,75.2,59.0,57,29.82,10.0,South,10.4,19.6,N/A,,Clear,180,2013-04-11 03:15:00
10:35 PM,77.0,60.8,57,29.82,10.0,South,13.8,21.9,N/A,,Clear,180,2013-04-11 03:35:00
10:55 PM,75.2,59.0,57,29.81,10.0,South,11.5,18.4,N/A,,Clear,180,2013-04-11 03:55:00
11:15 PM,75.2,59.0,57,29.83,10.0,South,12.7,21.9,N/A,,Clear,180,2013-04-11 04:15:00
11:35 PM,75.2,59.0,57,29.83,10.0,South,13.8,19.6,N/A,,Clear,190,2013-04-11 04:35:00
11:55 PM,75.2,57.2,53,29.82,10.0,South,11.5,27.6,N/A,,Clear,180,2013-04-11 04:55:00